User: anonymous   Login
Location: Simi Valley
(34.2690°N, 118.7810°W)
Time: 01:30:08
(UTC-07:00)
Language:

Lacrosse 5 rocket - Orbit

View from above orbital plane
View from above orbital plane
View from above satellite
View from above satellite

Ground track
Ground track

The orbit data is extracted from the following two-line orbital elements,

1 28647U 05016B   17265.14242194 0.00001000  00000-0  56230-4 0    01
2 28647  56.9915 341.8050 0137004 141.1225 218.8774 15.05106514    01
Epoch (UTC): 22 September 2017 03:25:05
Eccentricity: 0.0137004
inclination: 56.9915°
perigee height: 456 km
apogee height: 646 km
right ascension of ascending node: 341.8050°
argument of perigee: 141.1225°
revolutions per day: 15.05106514
mean anomaly at epoch: 218.8774°
orbit number at epoch: 0

The dashed part of the orbit path shows where the satellite is in the earth's shadow,  

DLR